GLOBALSTAR M069 1 31573U 07020C 26107.26374955 -.00000105 00000+0 -11675-3 0 9995 2 31573 52.0037 64.5597 0002128 26.1570 115.7638 12.23470000871341 GLOBALSTAR M072 1 31574U 07020D 26106.72464814 -.00000092 00000+0 -10917-3 0 9993 2 31574 51.9927 263.8768 0001581 162.4418 210.9150 11.91657210867659 GLOBALSTAR M066 1 32265U 07048C 26107.30092179 -.00000103 00000+0 -74662-4 0 9998 2 32265 51.9588 232.7001 0004126 269.8307 107.2696 12.30388219852732 GLOBALSTAR M079 1 37188U 10054A 26107.02907498 -.00000097 00000+0 38890-4 0 9990 2 37188 52.0044 294.8457 0000683 119.8230 45.8119 12.62265002714820 GLOBALSTAR M074 1 37189U 10054B 26106.89342154 -.00000094 00000+0 56096-4 0 9992 2 37189 52.0022 294.5338 0000704 91.7188 56.8530 12.62267502715418 GLOBALSTAR M076 1 37190U 10054C 26106.81079909 -.00000074 00000+0 16389-3 0 9999 2 37190 52.0034 294.9824 0000487 95.9262 277.7004 12.62271958715122 GLOBALSTAR M077 1 37191U 10054D 26107.01611873 -.00000052 00000+0 48402-3 0 9992 2 37191 51.9983 334.5587 0003276 66.9117 81.3280 11.67547455713997 GLOBALSTAR M075 1 37192U 10054E 26107.01000186 -.00000082 00000+0 11997-3 0 9994 2 37192 51.9968 336.4649 0000801 89.1616 49.6113 12.62265896714213 GLOBALSTAR M073 1 37193U 10054F 26106.66602243 -.00000114 00000+0 -56107-4 0 9997 2 37193 52.0053 251.5634 0000566 131.6452 242.2777 12.62266366716167 GLOBALSTAR M083 1 37739U 11033A 26107.23554405 -.00000081 00000+0 12564-3 0 9991 2 37739 51.9851 198.1416 0000459 156.8221 228.0661 12.62262547685251 GLOBALSTAR M088 1 37740U 11033B 26107.14163822 -.00000101 00000+0 15501-4 0 9990 2 37740 52.0195 104.7067 0000270 66.6362 9.3282 12.62263094680786 GLOBALSTAR M091 1 37741U 11033C 26107.24741025 -.00000121 00000+0 -95517-4 0 9997 2 37741 52.0001 67.4380 0000396 87.1523 51.1021 12.62262629681580 GLOBALSTAR M085 1 37742U 11033D 26107.15651456 -.00000093 00000+0 62439-4 0 9990 2 37742 52.0150 18.9546 0000610 94.9498 50.2810 12.62262712682082 GLOBALSTAR M081 1 37743U 11033E 26107.18405858 -.00000101 00000+0 12944-4 0 9993 2 37743 51.9982 21.3767 0000513 74.4523 75.2245 12.62263395682235 GLOBALSTAR M089 1 37744U 11033F 26107.06561002 -.00000082 00000+0 12180-3 0 9994 2 37744 51.9952 335.9114 0000750 64.6952 86.8117 12.62265722683067 GLOBALSTAR M084 1 38040U 11080A 26107.20697429 -.00000085 00000+0 10473-3 0 9991 2 38040 52.0004 202.9282 0000271 99.3556 274.7486 12.62266371661063 GLOBALSTAR M080 1 38041U 11080B 26107.26039905 -.00000089 00000+0 82512-4 0 9995 2 38041 52.0053 204.4629 0000957 127.6472 259.0455 12.62268276661195 GLOBALSTAR M082 1 38042U 11080C 26107.11623135 -.00000069 00000+0 19374-3 0 9997 2 38042 52.0064 160.3966 0000603 138.4138 242.8959 12.62269120661883 GLOBALSTAR M092 1 38043U 11080D 26107.12332317 -.00000095 00000+0 51697-4 0 9992 2 38043 52.0081 250.7678 0000675 108.9955 64.0370 12.62266465660334 GLOBALSTAR M090 1 38044U 11080E 26107.14525491 -.00000064 00000+0 22196-3 0 9999 2 38044 52.0106 154.2439 0000293 145.9864 246.4465 12.62268086662000 GLOBALSTAR M086 1 38045U 11080F 26107.08547969 -.00000076 00000+0 15628-3 0 9992 2 38045 51.9878 154.4558 0000760 266.2773 111.2487 12.62285239661948 GLOBALSTAR M097 1 39072U 13005A 26107.26966958 -.00000124 00000+0 -11112-3 0 9994 2 39072 52.0045 68.7676 0000290 87.9460 272.1440 12.62260105609217 GLOBALSTAR M093 1 39073U 13005B 26107.24344802 -.00000111 00000+0 -40703-4 0 9996 2 39073 52.0109 62.1733 0000226 111.2482 248.8409 12.62264528609167 GLOBALSTAR M094 1 39074U 13005C 26107.00598572 -.00000088 00000+0 90774-4 0 9991 2 39074 51.9979 337.0795 0000665 104.4199 255.6742 12.62267441610748 GLOBALSTAR M096 1 39075U 13005D 26107.17763586 -.00000101 00000+0 17578-4 0 9996 2 39075 52.0097 25.3065 0000555 90.2305 269.8626 12.62264030609688 GLOBALSTAR M078 1 39076U 13005E 26107.07138864 -.00000101 00000+0 15933-4 0 9994 2 39076 51.9853 109.7215 0001094 121.5991 238.4982 12.62276890608299 GLOBALSTAR M095 1 39077U 13005F 26107.01902147 -.00000103 00000+0 59632-5 0 9999 2 39077 52.0062 107.3998 0000503 138.5987 221.4919 12.62267382608145 GLOBALSTAR M087 1 52888U 22064A 26106.63656538 -.00000108 00000+0 -23656-4 0 9998 2 52888 51.9994 249.8414 0000794 132.6920 227.4014 12.62268143183361